Погода Весёлая Горка

Погода Весёлая Горка : погода сейчас, прогноз погоды и архив. Всё, что Вы хотите узнать о погоде Весёлая Горка!

Поиск расширенной информации на нашем сайте:

Другие новости

Новости СМИ2

Главная страница сайта

Новости сайта

03.07.2017

Напоминаем, что на нашем специализированном сайте Метеоцентр.Азия вы можете получить высокодетализированные автоматические прогнозы погоды по пунктам России, СНГ и мира в авиационном формате (включающие направление и скорость ветра, видимость, явления погоды, количество и форму облачности, нижнюю и верхнюю границу облачности).

Рекомендуем: Смотрим документальное кино.

Погода Весёлая Горка - сегодня

Время (UTC), дата Ветер
(°,м/с) 
Видим.   Явления Облачность Т
(°С)
Тd
(°С)
f(%) Тe
(°С)
Pmin
(гПа)
dP
(гПа)
Po
(мм)
O2
(г/м3)
Тmin Tmax R s Состояние
почвы
18 15.08.17 тихо ()   20000 м    10/10 600 м кучево-дожд. 
[Cb cap]
+14.6 +12.6 88 +20  1019.4  0.1  747  283           
21 15.08.17 тихо ()   20000 м    10/10 600 м кучево-дожд. 
[Cb cap]
+15 +13 88 +21  1019.6  0.3  747  283  +14.5        сухая 
00 16.08.17 360 (С) 20000 м    10/10 600 м кучево-дожд. 
[Cb cap]
+16 +13.7 86 +24  1019.8  0.3  747  282           
03 16.08.17 050 (СВ) 20000 м    10/10 600 м кучево-дожд. 
[Cb cap]
+17.1 +15.2 89 +28  1019.4  -0.3  747  280           
06 16.08.17 070 (В) н/о    н/о 
+19.9 +13.3 66 +27  1017.9  -1.3  746  277           
09 16.08.17 тихо ()   н/о    н/о 
+18.4 +13.7 74 +25  1017.6  -0.4  746  279    +20.6       
12 16.08.17 тихо ()   н/о    н/о 
+15.8 +14 89 +23  1018.4  0.6  746  281           
15 16.08.17 тихо ()   н/о    н/о 
+15 +13.5 91 +21  1018.3  -0.2  746  282           
18 16.08.17 тихо ()   н/о    н/о 
+14.2 +12.8 91 +19  1017.8  -0.5  746  283           
21 16.08.17 тихо ()   н/о    н/о 
+13.6 +12.3 92 +18  1018.5  0.6  746  284  +13.4         
00 17.08.17 тихо ()   20000 м  {дождь}  10/10 600 м кучево-дожд. 
[Cb cap]
+14.7 +13.6 93 +21  1018.3  -0.2  746  282           
03 17.08.17 тихо ()   20000 м    10/10 600 м кучево-дожд. 
[Cb cap]
+16.6 +13 79 +22  1017.4  -0.7  745  281           
06 17.08.17 тихо ()   20000 м    10/10 600 м кучево-дожд. 
[Cb cap]
+18.3 +13.6 74 +25  1015.7  -1.4  744  278           
09 17.08.17 тихо ()   20000 м    10/10 600 м кучево-дожд. 
[Cb cap]
+17.6 +14.9 84 +26  1015.2  -0.5  744  278    +19.5  0.0     
12 17.08.17 тихо ()   20000 м    10/10 600 м кучево-дожд. 
[Cb cap]
+15.6 +13.1 85 +21  1015.6  0.1  744  281           
15 17.08.17 тихо ()   20000 м    10/10 600 м кучево-дожд. 
[Cb cap]
+15 +13.8 93 +22  1015.7  0.1  744  281           
18 17.08.17 тихо ()   20000 м    10/10 600 м кучево-дожд. 
[Cb cap]
+13.9 +13 94 +20  1015.1  -0.6  744  282           
21 17.08.17 тихо ()   20000 м    10/10 600 м кучево-дожд. 
[Cb cap]
+13.1 +12.2 94 +18  1014.9  -0.3  743  283  +12.7        сухая 
00 18.08.17 тихо ()   20000 м    10/10 600 м кучево-дожд. 
[Cb cap]
+15 +11.9 82 +19  1015.1  0.3  744  282           
03 18.08.17 тихо ()   20000 м    10/10 600 м кучево-дожд. 
[Cb cap]
+19.4 +13.8 70 +26  1013.3  -1.3  743  277           
06 18.08.17 050 (СВ) 20000 м    10/0 
[Sc]
+20.6 +14.8 69 +29  1012.2  -1.1  742  275           
09 18.08.17 070 (В) 20000 м    10/10 600 м 
[Sc]
+20.2 +16.9 81 +33  1012.1  -0.1  742  274    +22.5       
12 18.08.17 010 (С) 69  <0100 м    10/10 <0100 м 
[Sc]
+15.4   1012.5  0.1  742             
15 18.08.17 тихо ()   20000 м    10/10 600 м 
[Sc]
+16.1 +14.9 93 +25  1012.4  -0.2  742  279           
18 18.08.17 тихо ()   20000 м    10/10 600 м кучево-дожд. 
[Cb cap]
+15.5 +14.5 94 +24  1011.6  -0.9  741  279           
Время (UTC), дата Ветер
(°,м/с) 
Видим.   Явления Облачность Т
(°С)
Тd
(°С)
f(%) Тe
(°С)
Pmin
(гПа)
dP
(гПа)
Po
(мм)
O2
(г/м3)
Тmin Tmax R s Состояние
почвы

Для получения пояснительной информации подведите курсор к названию столбца.

ПОГОДА Весёлая Горка - архив

Всё, что Вы хотите узнать о погоде Весёлая Горка - удобно и подробно!

Выберите нужную дату (начиная с 1 января 2015* года) и нажмите кнопку "Найти".
Будут отображены архивные сводки погоды по пункту Весёлая Горка, начиная с указанной даты.


Отображать данные в формате CSV (для использования в таблицах Excel)


Внимание! Наш архив погоды предназначен исключительно для личного некоммерческого использования в познавательных целях. Если Вам необходимы официальные справки о состоянии погоды (для производственных, юридических, коммерческих и т.п. целей), обращайтесь в органы Росгидромета.

*Примечание: данная дата относится к архиву по метеостанциям СССР (Россия, СНГ, Балтия).
Архив по метеостанциям Зарубежной Европы и Азии (кроме Китая) хранится 10 дней, по другим регионам земного шара (Китай, Африка, Америка, Австралия, Океания) - 1 день.

Весёлая Горка - район местоположения метеостанции


Название, широта, долгота, высота метеостанции:
Весёлая Горка 52.3°ш. 135.8°д. 201 м над ур. моря [Российская Федерация]

Дополнительная информация

В oтличие oт бoльшинства пoгoдных сайтoв мы публикуем пoдрoбную метеoинфoрмацию в детальнoм прoфессиoнальнoм фoрмате.

Характеристики температуры и влажнoсти вoздуха измеряются на высoте 2 м в тени вдали oт зданий и деревьев.
Скoрoсть ветра измеряется на высoте 10 м (на урoвне рoста челoвека скoрoсть ветра ниже в 1.5-2 раза). Если метеoстанция нахoдится в гoрoде или в лесу, тo скoрoсть ветра занижена на 2-4 м/с пo сравнению с oткрытым местoм. Скoрoсть ветра над акватoриями крупных рек и oзёр, а также на вершинах хoлмoв на 2-5 м/с выше, чем в oбычных услoвиях.
Атмoсфернoе давление в разных тoчках местнoсти мoжет значительнo oтличаться oт давления на метеoстанции, в зависимoсти oт услoвий рельефа (при пoдъёме на 10 м давление пoнижается примернo на 1 мм рт.ст.).